Theta_e
311 311 311 311 311 311 312 312 312 312 313 316 317 317 318 318 318 317 315 315 319 317 317 318 316 315 320 322 322 323 315 317 326 335 333 335 330 332 330 335 333 331 336 338 340
311 311 311 311 311 312 312 312 312 312 313 313 315 316 318 319 320 322 316 315 317 317 316 317 319 318 319 321 321 317 312 315 318 332 332 332 335 330 332 334 332 334 337 340 339
311 311 311 311 311 312 312 312 312 312 313 313 314 315 317 319 324 325 316 315 317 317 317 316 319 319 319 320 318 315 314 315 321 323 331 332 334 329 331 330 331 334 337 338 339
310 310 311 311 311 312 312 312 312 312 313 313 313 315 316 319 324 328 323 319 318 316 316 315 317 319 316 315 318 317 317 319 321 322 330 332 332 328 331 330 330 331 336 337 338
310 311 311 311 312 312 313 313 313 313 313 313 314 315 316 318 324 329 323 321 319 316 315 316 320 320 316 316 318 316 317 320 322 323 328 331 328 328 329 330 330 335 336 337 338
311 311 312 312 312 313 313 313 314 315 314 313 314 315 317 317 327 329 322 321 318 315 315 317 321 321 320 318 319 321 320 321 323 322 335 333 330 329 328 330 332 334 335 336 337
311 312 313 313 313 313 313 315 318 318 317 314 318 317 316 316 326 327 322 318 315 315 316 318 318 320 319 318 321 321 321 319 323 331 333 334 328 326 327 331 333 334 334 334 336
312 313 313 314 314 314 314 318 317 316 318 318 320 317 316 317 327 326 326 322 316 315 317 319 320 319 319 321 319 319 320 322 321 328 333 334 333 326 329 331 332 333 334 335 335
314 314 315 315 314 314 316 318 316 318 321 320 322 317 318 322 324 325 326 325 321 319 320 319 319 319 319 315 315 314 322 323 323 324 327 329 330 326 331 331 331 332 333 334 335
316 316 316 316 315 314 318 318 316 323 319 316 319 318 321 324 326 325 326 326 323 322 320 320 320 313 310 312 316 318 318 318 320 321 324 328 329 324 330 331 331 331 332 332 333
318 319 318 318 316 316 317 316 317 316 316 316 316 317 318 323 323 324 327 325 324 321 318 317 315 315 314 313 316 317 317 317 317 317 324 325 330 324 328 329 329 330 330 331 331
320 320 320 320 317 317 318 318 317 316 314 316 316 316 316 316 318 323 323 324 320 316 316 315 315 315 315 316 317 317 318 317 316 318 328 328 331 329 325 327 328 328 329 330 331
320 320 321 321 317 318 317 318 318 317 315 316 320 319 317 317 318 323 322 324 319 316 316 315 316 317 318 319 319 318 318 317 318 319 324 331 327 333 327 327 327 327 328 329 330
319 319 320 321 321 321 317 318 317 318 315 322 323 321 318 318 318 323 322 322 319 317 314 316 316 318 318 318 317 317 316 318 319 318 317 329 333 327 330 330 329 327 326 328 329
319 319 320 320 320 321 319 317 318 318 318 326 322 322 319 319 320 321 322 321 320 320 318 318 319 318 319 319 317 318 318 317 319 317 316 318 320 320 325 331 329 329 329 329 328
319 319 320 320 320 320 320 319 319 318 329 327 322 321 319 319 319 321 321 322 322 320 319 318 320 319 319 319 318 320 319 316 312 312 315 315 316 314 318 323 327 328 331 332 332
318 319 320 320 320 320 321 316 313 314 319 320 320 319 318 318 319 319 319 319 317 321 320 319 319 318 320 320 319 317 315 317 318 317 317 315 316 315 319 318 321 321 324 326 325
319 318 319 320 319 320 317 312 316 316 320 319 319 319 318 318 319 318 319 318 318 318 316 319 321 320 320 320 322 321 316 317 319 317 317 316 317 318 318 320 323 325 324 325 328
317 317 322 320 320 318 318 311 310 316 318 318 318 317 318 317 318 316 317 319 321 318 321 319 320 320 322 322 322 322 319 317 317 315 316 316 317 318 319 321 324 326 328 326 326
315 315 322 322 321 319 311 311 316 317 319 321 317 317 317 317 317 317 317 320 322 321 319 320 321 321 323 323 322 321 318 320 314 320 319 317 320 320 321 321 323 322 326 327 329
313 314 322 322 320 319 314 313 316 321 322 325 323 318 317 320 318 318 319 322 325 323 319 322 320 323 323 323 322 321 320 316 315 315 318 318 318 317 320 321 323 322 327 328 329
310 307 320 320 318 315 316 317 321 321 322 321 321 320 321 321 321 320 319 325 324 326 327 323 320 322 323 323 323 321 321 318 320 321 318 318 320 320 320 318 320 323 324 324 327
309 309 314 317 316 311 314 318 319 321 319 318 321 322 321 322 323 321 323 321 321 322 327 327 319 320 319 319 320 323 324 319 317 317 321 322 323 321 320 321 326 326 326 329 327
308 309 317 318 316 315 314 316 319 318 318 320 319 320 320 321 319 321 320 321 321 320 322 325 320 319 320 320 326 328 326 324 321 321 322 321 322 322 323 326 325 326 326 327 329
309 313 312 312 314 311 312 314 316 316 316 317 317 318 319 319 318 317 318 319 319 319 320 319 322 328 326 326 327 327 327 326 323 320 322 321 320 324 326 325 325 326 324 325 327
311 313 313 313 313 312 309 312 315 315 316 317 315 317 315 316 316 316 316 317 317 318 319 317 319 325 324 323 325 325 322 324 326 326 319 319 320 324 323 322 323 324 322 323 324
312 312 312 312 311 311 311 314 315 314 315 315 315 314 317 317 317 318 317 317 316 316 316 316 319 321 322 324 323 321 322 324 325 327 326 326 327 322 322 322 321 321 320 321 322
Wind_Speed
21 21 21 21 22 21 20 19 18 16 14 14 15 14 12 12 13 12 11 6 13 11 11 10 9 9 9 4 4 2 4 2 4 3 4 9 5 14 9 23 6 4 10 23 30
20 21 21 22 21 21 20 20 20 17 14 14 14 14 12 13 15 8 5 12 16 11 8 10 8 9 6 4 6 5 4 8 6 4 4 2 6 17 8 21 3 10 17 34 30
21 22 22 22 22 22 21 21 20 17 15 13 13 13 12 14 5 5 2 13 14 11 10 6 8 3 4 5 7 6 6 6 9 21 23 6 8 13 15 8 14 33 34 36 34
22 22 22 23 23 22 22 21 21 17 15 13 12 12 11 10 3 3 1 9 12 13 10 8 9 4 2 4 7 3 12 12 19 29 22 7 7 10 27 11 25 35 40 39 38
22 23 23 23 23 22 21 21 19 18 15 13 12 11 11 6 2 1 2 12 11 12 12 11 10 4 2 4 4 4 6 11 22 25 23 24 17 8 26 7 29 37 39 40 39
22 23 23 23 23 23 21 20 18 18 16 12 11 9 8 3 1 1 2 10 9 11 13 14 4 0 8 5 2 5 7 12 17 17 16 16 4 12 19 20 35 41 38 39 40
23 23 23 24 23 22 21 17 19 19 14 9 9 10 11 10 1 3 1 2 5 9 11 13 7 5 10 6 5 8 7 7 4 4 3 13 4 15 17 29 38 41 39 39 40
23 23 24 24 24 21 18 17 19 17 9 8 9 9 6 3 9 6 5 3 5 7 8 8 7 13 5 7 7 5 3 3 5 6 4 14 13 8 27 39 32 38 42 44 42
24 24 24 24 24 21 16 17 21 11 6 8 7 5 4 6 9 9 8 8 4 6 5 8 10 3 1 4 5 6 2 2 7 6 3 4 7 5 32 36 34 35 40 44 46
24 24 23 23 23 19 17 12 16 4 6 8 3 4 4 3 2 6 9 10 4 3 3 2 1 3 4 5 4 3 4 4 5 3 2 8 11 8 33 34 37 36 36 40 45
24 24 23 22 21 14 15 7 14 4 24 15 16 16 20 11 9 5 11 11 14 2 2 4 4 5 8 6 3 2 3 5 6 8 3 4 8 13 30 26 25 29 32 38 46
24 25 23 21 16 7 11 11 15 13 13 26 28 26 27 22 7 4 6 10 8 5 4 5 6 10 4 3 4 3 4 10 9 5 4 6 6 5 12 28 32 35 34 40 48
24 24 25 21 11 7 5 10 11 14 6 15 5 7 12 15 10 11 4 12 5 5 4 6 7 3 3 3 3 4 4 7 9 6 3 2 5 3 7 19 25 25 37 41 48
23 24 24 22 8 15 6 8 13 11 4 6 4 1 9 6 5 19 19 9 1 9 7 5 5 5 2 6 6 5 8 11 6 2 3 3 4 5 5 12 15 33 33 44 49
23 24 22 21 18 16 10 8 12 3 3 3 1 1 10 10 1 2 18 15 8 6 6 9 4 5 2 7 7 10 3 7 4 3 4 3 3 7 3 5 10 25 39 46 54
23 22 23 20 18 11 12 12 3 5 3 6 2 0 2 5 2 3 8 10 7 4 3 9 4 5 7 5 7 5 3 5 5 4 1 6 7 6 5 8 5 7 22 39 48
24 21 21 19 16 11 9 5 5 3 5 7 4 6 3 4 6 2 4 4 6 3 5 5 9 4 6 3 1 4 6 3 5 4 6 2 3 8 7 8 9 12 30 29 30
24 21 17 12 9 5 3 4 2 3 4 4 5 7 5 5 4 7 3 4 4 5 3 1 8 6 5 8 6 2 7 5 7 5 6 2 4 6 9 17 14 14 17 24 28
23 18 6 3 5 2 1 3 6 5 4 7 9 5 4 6 2 4 4 2 3 2 1 1 9 5 3 3 6 3 3 4 2 2 3 4 7 9 7 8 11 13 22 23 12
24 12 6 4 2 4 4 4 3 3 6 3 2 3 2 3 2 4 3 3 7 4 4 4 7 6 14 3 2 5 5 0 2 3 5 5 3 5 8 9 8 10 12 12 16
18 4 1 6 1 2 2 5 4 7 13 3 3 4 3 2 1 2 1 3 6 7 7 1 2 7 2 2 7 1 3 4 5 5 5 2 6 7 8 8 8 9 7 6 9
8 3 6 6 3 2 1 3 9 8 9 4 3 2 2 2 1 1 3 5 18 6 2 3 2 4 7 6 4 3 5 5 5 5 3 4 6 3 5 8 13 19 29 33 24
15 6 0 4 1 2 6 5 4 5 5 6 7 4 4 2 1 4 6 4 16 7 4 5 2 3 10 7 5 4 3 4 4 3 4 4 5 5 9 11 20 21 29 35 37
7 4 4 3 5 2 3 4 5 8 0 6 5 5 5 6 7 4 6 4 5 12 12 5 1 6 6 5 2 6 8 2 3 2 4 6 6 7 8 11 20 24 29 31 36
4 2 3 3 3 4 1 2 3 5 3 15 5 6 3 4 5 6 2 3 6 6 7 4 3 2 5 7 7 9 4 8 5 8 7 7 8 2 7 9 14 16 25 29 40
3 4 5 4 7 5 4 2 3 6 3 1 4 2 6 4 2 3 4 3 5 3 1 1 4 2 6 7 8 6 8 11 13 12 7 6 6 3 12 16 17 17 29 30 33
2 2 2 4 4 1 0 3 4 8 7 6 1 4 4 2 6 10 13 14 15 7 4 4 4 1 6 6 7 9 10 11 2 7 4 2 4 8 13 19 20 21 28 31 35
Wind_Direction
353 350 349 349 348 348 346 343 343 341 338 341 343 343 333 329 321 300 267 199 166 149 167 173 183 171 169 200 193 200 53 273 268 184 224 166 105 159 134 147 177 176 174 165 166
350 347 347 347 345 344 342 340 339 338 336 336 337 340 334 329 324 305 173 175 180 187 166 170 166 168 171 203 191 140 127 220 249 248 253 125 117 160 139 164 202 152 151 160 171
347 346 345 343 342 341 340 338 335 333 333 334 334 338 335 335 350 49 128 170 179 171 165 167 173 167 230 223 190 183 186 232 265 246 246 279 150 177 141 213 201 160 160 171 174
346 344 344 341 340 339 338 335 331 329 329 332 330 335 334 334 142 76 164 177 178 178 172 182 187 193 223 210 230 171 233 200 257 253 223 208 183 174 178 215 189 178 173 172 177
344 343 342 340 338 337 336 334 329 326 325 325 325 330 334 311 298 205 202 188 189 184 180 182 182 195 243 234 275 172 228 249 263 268 227 212 188 185 199 252 167 169 175 178 181
342 343 341 340 337 335 335 335 329 321 315 313 315 316 317 285 328 199 246 205 202 187 187 193 171 207 290 247 199 280 240 269 288 272 173 168 140 182 204 193 165 172 182 187 189
341 342 341 340 336 335 337 335 330 325 314 307 315 303 292 255 202 155 105 200 222 195 199 208 244 295 331 286 297 286 319 339 292 138 110 127 111 224 200 182 174 179 185 193 197
341 341 342 340 337 336 340 333 334 328 322 317 314 305 260 151 193 208 240 207 191 197 192 219 267 296 217 300 345 7 42 26 272 123 213 153 235 228 194 175 181 186 190 194 202
340 341 342 341 336 337 343 334 340 323 335 328 306 289 262 177 223 257 228 218 138 165 225 268 294 245 342 77 4 1 255 292 327 191 103 135 253 207 179 175 184 191 194 199 202
340 341 343 342 337 342 344 332 339 342 346 330 292 298 238 126 157 300 196 211 225 249 271 216 124 62 42 62 211 246 347 318 276 296 120 198 237 185 183 185 189 194 197 204 207
341 340 343 345 339 354 356 358 14 341 314 267 265 265 278 287 300 258 217 205 223 273 194 8 56 242 238 195 200 257 219 265 256 258 249 254 222 199 197 195 191 194 203 209 214
341 339 341 347 342 12 25 48 22 335 301 288 282 259 259 268 300 199 204 191 170 195 110 19 249 239 239 194 217 238 308 295 292 330 162 303 287 227 186 206 202 196 202 214 221
339 339 338 347 341 340 330 11 345 334 288 297 290 264 242 227 225 235 214 196 157 157 178 171 234 104 164 296 268 251 211 257 233 336 317 26 320 206 193 207 224 228 217 217 219
337 336 336 342 340 334 320 309 331 320 28 279 295 234 161 129 241 235 246 208 145 200 161 230 280 224 246 257 163 277 212 232 244 141 219 79 271 300 201 229 221 225 222 226 226
334 332 331 329 325 330 310 315 331 325 7 327 344 213 158 171 234 299 213 200 183 198 118 244 242 270 213 234 157 238 157 208 209 160 81 334 92 266 330 265 231 227 226 228 233
329 329 322 321 321 319 313 314 347 43 267 341 84 135 172 231 273 77 173 203 215 205 196 242 264 174 217 261 176 254 134 43 37 101 69 238 166 270 240 225 284 271 221 235 238
328 325 315 309 306 303 317 335 40 136 332 345 327 336 130 329 350 189 171 177 189 138 253 333 262 231 189 263 4 87 63 332 337 349 230 286 68 243 258 244 228 269 292 282 259
330 326 314 306 281 272 301 50 169 262 288 346 313 327 99 11 23 348 94 227 334 30 55 188 321 182 169 184 200 191 152 154 231 229 249 3 247 245 227 267 279 299 324 301 274
335 339 348 131 95 53 127 83 213 214 334 330 324 56 21 349 86 27 27 36 68 135 165 140 265 310 241 225 128 276 207 193 162 55 68 226 293 300 279 290 313 332 359 345 300
340 351 63 152 61 1 75 234 252 240 344 320 287 78 104 302 43 30 1 13 349 0 164 271 294 246 277 127 193 165 173 354 16 262 267 283 264 233 292 291 301 319 345 340 320
339 3 108 163 140 0 145 238 283 308 322 275 272 290 74 106 65 356 318 88 339 316 318 10 162 290 353 197 220 284 256 63 122 149 191 223 264 223 246 260 253 278 322 343 331
348 359 148 170 355 25 195 219 317 328 343 312 253 304 139 131 117 304 114 24 353 342 44 319 180 278 243 269 260 233 233 160 138 251 216 165 259 262 297 308 324 335 340 336 309
337 300 324 196 134 321 310 304 278 328 340 358 8 12 8 32 27 42 28 42 24 35 31 327 322 355 333 341 8 45 4 102 113 70 224 168 254 317 29 7 355 351 351 346 343
342 355 348 63 77 111 18 293 323 318 186 42 14 27 45 27 19 45 10 15 6 14 3 151 139 174 202 249 353 302 317 293 143 151 229 223 262 297 351 346 336 352 354 355 356
347 0 11 322 345 355 303 277 318 338 24 28 30 34 322 52 8 6 4 322 314 27 15 73 290 244 249 264 282 276 298 319 254 228 200 253 242 0 330 315 318 349 354 359 2
351 358 343 295 314 330 360 40 341 314 335 51 101 26 69 99 126 307 343 10 249 301 147 308 267 267 266 267 262 260 294 276 274 270 252 259 257 13 322 332 342 2 357 354 356
287 287 303 301 334 11 323 303 343 342 51 44 189 123 122 155 291 266 254 255 248 252 204 210 201 226 259 223 307 285 228 237 293 41 331 350 343 344 345 341 336 1 358 350 349